Previsão horária em Cavtat

Hoje, 2 Agosto, Segunda-feira

Tempo Temperatura Precipitação Vento Pressão Humidade
00:00 +28°C° 0 mm 4 m/s 749 mmHg 44%
01:00 +27°C° 0 mm 3 m/s 748 mmHg 45%
02:00 +27°C° 0 mm 3 m/s 748 mmHg 50%
03:00 +26°C° 0 mm 3 m/s 748 mmHg 56%
04:00 +26°C° 0 mm 3 m/s 749 mmHg 61%
05:00 +27°C° 0 mm 3 m/s 749 mmHg 58%
06:00 +29°C° 0 mm 3 m/s 749 mmHg 55%
07:00 +31°C° 0 mm 3 m/s 749 mmHg 52%
08:00 +33°C° 0 mm 3 m/s 750 mmHg 48%
09:00 +34°C° 0 mm 3 m/s 750 mmHg 43%
10:00 +36°C° 0 mm 4 m/s 750 mmHg 38%
11:00 +36°C° 0 mm 4 m/s 750 mmHg 38%
12:00 +36°C° 0 mm 4 m/s 750 mmHg 37%
13:00 +36°C° 0 mm 5 m/s 751 mmHg 37%
14:00 +35°C° 0 mm 4 m/s 750 mmHg 35%
15:00 +35°C° 0 mm 3 m/s 750 mmHg 34%
16:00 +35°C° 0 mm 3 m/s 750 mmHg 32%
17:00 +32°C° 0 mm 2 m/s 750 mmHg 37%
18:00 +30°C° 0 mm 2 m/s 751 mmHg 41%
19:00 +28°C° 0 mm 2 m/s 751 mmHg 46%
20:00 +27°C° 0 mm 2 m/s 751 mmHg 51%
21:00 +25°C° 0 mm 2 m/s 751 mmHg 57%
22:00 +24°C° 0 mm 2 m/s 752 mmHg 62%
23:00 +24°C° 0 mm 2 m/s 752 mmHg 60%

Amanhã, 3 Agosto, Terça-feira

Tempo Temperatura Precipitação Vento Pressão Humidade
00:00 +24°C° 0 mm 2 m/s 752 mmHg 57%
01:00 +24°C° 0 mm 1 m/s 752 mmHg 55%
02:00 +24°C° 0 mm 2 m/s 752 mmHg 54%
03:00 +23°C° 0 mm 2 m/s 752 mmHg 54%
04:00 +23°C° 0 mm 2 m/s 752 mmHg 53%
05:00 +25°C° 0 mm 2 m/s 752 mmHg 47%
06:00 +27°C° 0 mm 1 m/s 752 mmHg 42%
07:00 +29°C° 0 mm 1 m/s 752 mmHg 37%
08:00 +31°C° 0 mm 2 m/s 752 mmHg 35%
09:00 +33°C° 0 mm 3 m/s 753 mmHg 34%
10:00 +34°C° 0 mm 3 m/s 753 mmHg 32%
11:00 +34°C° 0 mm 4 m/s 753 mmHg 31%
12:00 +35°C° 0 mm 4 m/s 753 mmHg 31%
13:00 +36°C° 0 mm 5 m/s 753 mmHg 30%
14:00 +34°C° 0 mm 4 m/s 752 mmHg 32%
15:00 +33°C° 0 mm 3 m/s 752 mmHg 34%
16:00 +31°C° 0 mm 2 m/s 752 mmHg 37%
17:00 +30°C° 0 mm 2 m/s 752 mmHg 41%
18:00 +28°C° 0 mm 2 m/s 752 mmHg 46%
19:00 +26°C° 0 mm 2 m/s 751 mmHg 50%
20:00 +25°C° 0 mm 2 m/s 752 mmHg 51%
21:00 +25°C° 0 mm 2 m/s 752 mmHg 52%
22:00 +24°C° 0 mm 2 m/s 752 mmHg 54%
23:00 +24°C° 0 mm 2 m/s 752 mmHg 54%

Depois de amanhã, 4 Agosto, Quarta-feira

Tempo Temperatura Precipitação Vento Pressão Humidade
00:00 +23°C° 0 mm 2 m/s 752 mmHg 54%
01:00 +23°C° 0 mm 2 m/s 752 mmHg 54%
02:00 +23°C° 0 mm 2 m/s 752 mmHg 54%
03:00 +22°C° 0 mm 3 m/s 752 mmHg 55%
04:00 +22°C° 0 mm 3 m/s 752 mmHg 55%
05:00 +25°C° 0 mm 3 m/s 752 mmHg 49%
06:00 +27°C° 0 mm 2 m/s 752 mmHg 43%
07:00 +30°C° 0 mm 2 m/s 752 mmHg 37%
08:00 +31°C° 0 mm 2 m/s 752 mmHg 35%
09:00 +34°C° 0 mm 3 m/s 752 mmHg 32%
10:00 +36°C° 0 mm 3 m/s 752 mmHg 30%
11:00 +36°C° 0 mm 3 m/s 752 mmHg 29%
12:00 +36°C° 0 mm 3 m/s 752 mmHg 29%
13:00 +37°C° 0 mm 3 m/s 751 mmHg 28%
14:00 +37°C° 0 mm 3 m/s 751 mmHg 27%
15:00 +37°C° 0 mm 3 m/s 751 mmHg 26%
16:00 +37°C° 0 mm 3 m/s 751 mmHg 26%
17:00 +35°C° 0 mm 3 m/s 750 mmHg 29%
18:00 +33°C° 0 mm 3 m/s 750 mmHg 33%
19:00 +30°C° 0 mm 3 m/s 750 mmHg 36%
20:00 +29°C° 0 mm 4 m/s 750 mmHg 37%
21:00 +29°C° 0 mm 4 m/s 750 mmHg 37%
22:00 +28°C° 0 mm 5 m/s 750 mmHg 38%
23:00 +27°C° 0 mm 5 m/s 750 mmHg 39%

5 Agosto, Quinta-feira

Tempo Temperatura Precipitação Vento Pressão Humidade
00:00 +27°C° 0 mm 5 m/s 750 mmHg 40%
01:00 +27°C° 0 mm 5 m/s 749 mmHg 41%
02:00 +26°C° 0 mm 5 m/s 749 mmHg 43%
03:00 +26°C° 0 mm 5 m/s 749 mmHg 46%
04:00 +26°C° 0 mm 5 m/s 749 mmHg 48%
05:00 +28°C° 0 mm 5 m/s 749 mmHg 46%
06:00 +29°C° 0 mm 4 m/s 749 mmHg 43%
07:00 +31°C° 0 mm 3 m/s 750 mmHg 41%
08:00 +33°C° 0 mm 3 m/s 749 mmHg 39%
09:00 +34°C° 0 mm 3 m/s 749 mmHg 36%
10:00 +36°C° 0 mm 2 m/s 749 mmHg 34%
11:00 +33°C° 0.2 mm 4 m/s 749 mmHg 42%
12:00 +29°C° 0.2 mm 5 m/s 750 mmHg 51%
13:00 +26°C° 0.2 mm 7 m/s 750 mmHg 59%
14:00 +28°C° 0.3 mm 6 m/s 749 mmHg 54%
15:00 +30°C° 0.3 mm 5 m/s 749 mmHg 48%
16:00 +33°C° 0.3 mm 4 m/s 748 mmHg 42%
17:00 +31°C° 0 mm 3 m/s 747 mmHg 46%
18:00 +29°C° 0 mm 3 m/s 747 mmHg 51%
19:00 +28°C° 0 mm 3 m/s 747 mmHg 55%
20:00 +27°C° 0 mm 3 m/s 747 mmHg 57%
21:00 +26°C° 0 mm 3 m/s 747 mmHg 60%
22:00 +25°C° 0 mm 3 m/s 747 mmHg 62%
23:00 +25°C° 0 mm 3 m/s 747 mmHg 62%

6 Agosto, Sexta-feira

Tempo Temperatura Precipitação Vento Pressão Humidade
00:00 +25°C° 0 mm 2 m/s 746 mmHg 62%
01:00 +25°C° 0 mm 2 m/s 746 mmHg 63%
02:00 +24°C° 0 mm 3 m/s 746 mmHg 64%
03:00 +24°C° 0 mm 3 m/s 746 mmHg 65%
04:00 +24°C° 0 mm 3 m/s 746 mmHg 67%
05:00 +25°C° 0 mm 2 m/s 746 mmHg 62%
06:00 +27°C° 0 mm 2 m/s 746 mmHg 57%
07:00 +28°C° 0 mm 2 m/s 746 mmHg 52%
08:00 +30°C° 0 mm 2 m/s 746 mmHg 47%
09:00 +31°C° 0 mm 3 m/s 746 mmHg 42%
10:00 +34°C° 0 mm 3 m/s 747 mmHg 38%
11:00 +34°C° 0 mm 5 m/s 747 mmHg 37%
12:00 +34°C° 0 mm 6 m/s 747 mmHg 36%
13:00 +35°C° 0 mm 7 m/s 747 mmHg 35%
14:00 +34°C° 0 mm 7 m/s 747 mmHg 32%
15:00 +34°C° 0 mm 8 m/s 747 mmHg 30%
16:00 +34°C° 0 mm 8 m/s 747 mmHg 27%
17:00 +30°C° 0 mm 6 m/s 747 mmHg 33%
18:00 +28°C° 0 mm 4 m/s 747 mmHg 39%
19:00 +25°C° 0 mm 3 m/s 747 mmHg 45%
20:00 +25°C° 0 mm 3 m/s 748 mmHg 47%
21:00 +24°C° 0 mm 3 m/s 748 mmHg 48%
22:00 +22°C° 0 mm 3 m/s 748 mmHg 50%
23:00 +23°C° 0 mm 2 m/s 748 mmHg 53%

7 Agosto, Sábado

Tempo Temperatura Precipitação Vento Pressão Humidade
00:00 +21°C° 0 mm 2 m/s 749 mmHg 56%
01:00 +21°C° 0 mm 2 m/s 749 mmHg 60%
02:00 +21°C° 0 mm 2 m/s 749 mmHg 62%
03:00 +21°C° 0 mm 2 m/s 749 mmHg 64%
04:00 +21°C° 0 mm 2 m/s 749 mmHg 66%
05:00 +24°C° 0 mm 2 m/s 749 mmHg 59%
06:00 +26°C° 0 mm 2 m/s 749 mmHg 51%
07:00 +28°C° 0 mm 1 m/s 750 mmHg 44%
08:00 +30°C° 0 mm 1 m/s 750 mmHg 39%
09:00 +32°C° 0 mm 1 m/s 750 mmHg 33%
10:00 +36°C° 0 mm 2 m/s 750 mmHg 28%
11:00 +36°C° 0 mm 2 m/s 750 mmHg 28%
12:00 +36°C° 0 mm 2 m/s 750 mmHg 27%
13:00 +36°C° 0 mm 3 m/s 750 mmHg 27%
14:00 +36°C° 0 mm 3 m/s 750 mmHg 28%
15:00 +35°C° 0 mm 3 m/s 749 mmHg 29%
16:00 +35°C° 0 mm 3 m/s 749 mmHg 30%
17:00 +32°C° 0 mm 2 m/s 749 mmHg 34%
18:00 +30°C° 0 mm 2 m/s 749 mmHg 38%
19:00 +27°C° 0 mm 2 m/s 749 mmHg 42%
20:00 +27°C° 0 mm 2 m/s 750 mmHg 43%
21:00 +26°C° 0 mm 2 m/s 750 mmHg 44%
22:00 +26°C° 0 mm 2 m/s 750 mmHg 45%
23:00 +25°C° 0 mm 2 m/s 750 mmHg 46%
Mostrar mais

Necessitamos do seu Consentimento

A Meteoprog e os seus Fornecedores de Serviços podem armazenar e aceder a dados pessoais como cookies, identificadores do dispositivo ou outras tecnologias semelhantes existentes no seu dispositivo e processar estes dados para personalizar conteúdos e anúncios, assim como funcionalidades nas redes sociais e análise de tráfego.

  • Armazenar e/ou aceder a informações no seu dispositivo

    Os cookies, identificadores do dispositivo ou outras informações podem ser armazenados ou acedidos no seu dispositivo, para os fins acima indicados.

  • Anúncios e conteúdos personalizados, medição de anúncios e conteúdos, dados sobre o público-alvo e desenvolvimento de produtos

    Os anúncios e os conteúdos podem ser personalizados com base num perfil. Podem ser adicionados dados adicionais para uma maior personalização dos anúncios e dos conteúdos. A eficácia dos anúncios e dos conteúdos pode ser medida. Podem ser obtidas informações sobre o público que visualizou os anúncios e os conteúdos. Estes dados podem ser usados para desenvolver ou melhorar sistemas, softwares ou a experiência do utilizador.

Ao clicar em "Eu concordo”, permitirá o uso de cookies, identificadores do dispositivo e web beacons mencionados ou outras tecnologias semelhantes. As configurações do navegador do seu dispositivo podem ser alteradas.

Para certos fins, podem ser invocados interesses legítimos ao invés de consentimento. Pode ler mais informação sobre este assunto na nossa Política de Privacidade e Cookies.